When you browse on this site, cookies collect data to enhance your experience and personalize the content and advertising you see.
Visit our Privacy Policy to learn more. By continuing to use the site, you agree to this use of cookies and data.
  • In United Kingdom
  • List of Countries
  • For 7 days
  • Water Temperature
  • Weather Map
  • Weather Widgets
  • user-avatar
    Login

    Hourly Weather Aberfeldy

    Today, 29 February, Saturday

    Time Temperature Precipitation Wind Pressure Humidity
    00:00 +2°C° 0 mm 2 mps 707 mmHg 98%
    01:00 +2°C° 1.4 mm 2 mps 705 mmHg 99%
    02:00 +2°C° 1.4 mm 2 mps 704 mmHg 99%
    03:00 +3°C° 1.4 mm 2 mps 702 mmHg 99%
    04:00 +3°C° 2.8 mm 2 mps 702 mmHg 99%
    05:00 +3°C° 2.8 mm 2 mps 701 mmHg 99%
    06:00 +3°C° 2.8 mm 2 mps 700 mmHg 99%
    07:00 +2°C° 0.5 mm 3 mps 700 mmHg 98%
    08:00 +1°C° 0.5 mm 3 mps 699 mmHg 96%
    09:00 0°C° 0.5 mm 3 mps 699 mmHg 95%
    10:00 0°C° 0 mm 4 mps 699 mmHg 89%
    11:00 0°C° 0 mm 5 mps 699 mmHg 83%
    12:00 -1°C° 0 mm 7 mps 699 mmHg 77%
    13:00 -1°C° 0.1 mm 7 mps 698 mmHg 78%
    14:00 -2°C° 0.1 mm 7 mps 697 mmHg 79%
    15:00 -2°C° 0.1 mm 7 mps 696 mmHg 80%
    16:00 -2°C° 1.3 mm 7 mps 695 mmHg 86%
    17:00 -3°C° 1.3 mm 6 mps 694 mmHg 91%
    18:00 -3°C° 1.3 mm 6 mps 692 mmHg 97%
    19:00 -2°C° 0.4 mm 5 mps 691 mmHg 97%
    20:00 -1°C° 0.4 mm 3 mps 691 mmHg 97%
    21:00 -1°C° 0.4 mm 2 mps 690 mmHg 98%
    22:00 -1°C° 0.6 mm 3 mps 690 mmHg 97%
    23:00 0°C° 0.6 mm 3 mps 691 mmHg 97%

    Tomorrow, 1 March, Sunday

    Time Temperature Precipitation Wind Pressure Humidity
    00:00 -1°C° 0.6 mm 4 mps 691 mmHg 97%
    01:00 -1°C° 0.2 mm 4 mps 692 mmHg 95%
    02:00 -1°C° 0.2 mm 5 mps 692 mmHg 93%
    03:00 -1°C° 0.2 mm 5 mps 693 mmHg 91%
    04:00 -1°C° 0.2 mm 4 mps 693 mmHg 93%
    05:00 -2°C° 0.2 mm 4 mps 694 mmHg 94%
    06:00 -1°C° 0.2 mm 3 mps 694 mmHg 96%
    07:00 -1°C° 1.3 mm 3 mps 695 mmHg 96%
    08:00 -1°C° 1.3 mm 4 mps 696 mmHg 96%
    09:00 0°C° 1.3 mm 4 mps 697 mmHg 96%
    10:00 0°C° 1.1 mm 5 mps 698 mmHg 96%
    11:00 -1°C° 1.1 mm 6 mps 699 mmHg 95%
    12:00 -1°C° 1.1 mm 8 mps 699 mmHg 95%
    13:00 -1°C° 0.3 mm 8 mps 699 mmHg 92%
    14:00 -1°C° 0.3 mm 8 mps 699 mmHg 90%
    15:00 -1°C° 0.3 mm 9 mps 699 mmHg 87%
    16:00 -1°C° 0.5 mm 8 mps 699 mmHg 89%
    17:00 -2°C° 0.5 mm 8 mps 699 mmHg 91%
    18:00 -2°C° 0.5 mm 8 mps 699 mmHg 94%
    19:00 -2°C° 1.3 mm 8 mps 699 mmHg 95%
    20:00 -2°C° 1.3 mm 7 mps 699 mmHg 96%
    21:00 -2°C° 1.3 mm 6 mps 700 mmHg 97%
    22:00 -1°C° 0.6 mm 5 mps 700 mmHg 97%
    23:00 -1°C° 0.6 mm 4 mps 701 mmHg 98%

    Day after tomorrow, 2 March, Monday

    Time Temperature Precipitation Wind Pressure Humidity
    00:00 -1°C° 0.6 mm 3 mps 701 mmHg 98%
    01:00 0°C° 0.5 mm 3 mps 701 mmHg 98%
    02:00 0°C° 0.5 mm 3 mps 702 mmHg 97%
    03:00 -1°C° 0.5 mm 4 mps 702 mmHg 97%
    04:00 0°C° 0.1 mm 3 mps 702 mmHg 97%
    05:00 0°C° 0.1 mm 3 mps 703 mmHg 98%
    06:00 +1°C° 0.1 mm 2 mps 703 mmHg 98%
    07:00 +1°C° 0.1 mm 2 mps 703 mmHg 98%
    08:00 +1°C° 0.1 mm 2 mps 703 mmHg 97%
    09:00 +2°C° 0.1 mm 2 mps 704 mmHg 97%
    10:00 +1°C° 0.1 mm 3 mps 704 mmHg 97%
    11:00 +1°C° 0.1 mm 3 mps 705 mmHg 96%
    12:00 +1°C° 0.1 mm 3 mps 705 mmHg 96%
    13:00 +1°C° 1 mm 3 mps 705 mmHg 96%
    14:00 +1°C° 1 mm 3 mps 706 mmHg 96%
    15:00 +1°C° 1 mm 3 mps 706 mmHg 96%
    16:00 +1°C° 0.4 mm 3 mps 706 mmHg 96%
    17:00 +1°C° 0.4 mm 3 mps 706 mmHg 97%
    18:00 +2°C° 0.4 mm 2 mps 707 mmHg 97%
    19:00 +2°C° 0.1 mm 2 mps 707 mmHg 98%
    20:00 +2°C° 0.1 mm 2 mps 708 mmHg 98%
    21:00 +2°C° 0.1 mm 2 mps 708 mmHg 98%
    22:00 +2°C° 0.1 mm 2 mps 709 mmHg 98%
    23:00 +2°C° 0.1 mm 2 mps 709 mmHg 97%

    3 March, Tuesday

    Time Temperature Precipitation Wind Pressure Humidity
    00:00 +1°C° 0.1 mm 3 mps 710 mmHg 97%
    01:00 +1°C° 0.4 mm 3 mps 710 mmHg 97%
    02:00 0°C° 0.4 mm 4 mps 711 mmHg 97%
    03:00 0°C° 0.4 mm 5 mps 711 mmHg 97%
    04:00 0°C° 0.1 mm 5 mps 712 mmHg 97%
    05:00 0°C° 0.1 mm 4 mps 712 mmHg 97%
    06:00 +1°C° 0.1 mm 3 mps 713 mmHg 97%
    07:00 0°C° 0.1 mm 4 mps 714 mmHg 96%
    08:00 0°C° 0.1 mm 4 mps 714 mmHg 96%
    09:00 0°C° 0.1 mm 4 mps 715 mmHg 96%
    10:00 +1°C° 0.1 mm 4 mps 715 mmHg 95%
    11:00 +2°C° 0.1 mm 3 mps 716 mmHg 95%
    12:00 +2°C° 0.1 mm 3 mps 716 mmHg 95%
    13:00 +2°C° 0 mm 3 mps 717 mmHg 95%
    14:00 +1°C° 0 mm 4 mps 717 mmHg 95%
    15:00 +1°C° 0 mm 4 mps 718 mmHg 95%
    16:00 +1°C° 0 mm 4 mps 718 mmHg 95%
    17:00 +1°C° 0 mm 4 mps 719 mmHg 95%
    18:00 0°C° 0 mm 4 mps 719 mmHg 95%
    19:00 0°C° 0 mm 4 mps 720 mmHg 95%
    20:00 +1°C° 0 mm 3 mps 721 mmHg 95%
    21:00 +1°C° 0 mm 3 mps 721 mmHg 95%
    22:00 +1°C° 0 mm 3 mps 722 mmHg 95%
    23:00 0°C° 0 mm 3 mps 722 mmHg 95%

    4 March, Wednesday

    Time Temperature Precipitation Wind Pressure Humidity
    00:00 0°C° 0 mm 3 mps 722 mmHg 95%
    01:00 0°C° 0 mm 3 mps 723 mmHg 95%
    02:00 0°C° 0 mm 3 mps 723 mmHg 95%
    03:00 0°C° 0 mm 3 mps 723 mmHg 94%
    04:00 +1°C° 0 mm 2 mps 723 mmHg 94%
    05:00 -1°C° 0 mm 2 mps 723 mmHg 94%
    06:00 -1°C° 0 mm 2 mps 723 mmHg 93%
    07:00 -1°C° 0 mm 2 mps 724 mmHg 92%
    08:00 -1°C° 0 mm 2 mps 724 mmHg 91%
    09:00 -1°C° 0 mm 2 mps 724 mmHg 90%
    10:00 +1°C° 0 mm 2 mps 724 mmHg 88%
    11:00 +2°C° 0 mm 2 mps 725 mmHg 87%
    12:00 +2°C° 0 mm 2 mps 725 mmHg 85%
    13:00 +2°C° 0 mm 2 mps 725 mmHg 85%
    14:00 +2°C° 0 mm 2 mps 725 mmHg 85%
    15:00 +2°C° 0 mm 2 mps 725 mmHg 84%
    16:00 +2°C° 0 mm 1 mps 725 mmHg 86%
    17:00 +1°C° 0 mm 1 mps 725 mmHg 88%
    18:00 0°C° 0 mm 1 mps 725 mmHg 89%
    19:00 0°C° 0 mm 1 mps 725 mmHg 90%
    20:00 -1°C° 0 mm 1 mps 725 mmHg 90%
    21:00 -1°C° 0 mm 1 mps 725 mmHg 90%
    22:00 -1°C° 0 mm 1 mps 725 mmHg 90%
    23:00 -2°C° 0 mm 1 mps 725 mmHg 89%

    5 March, Thursday

    Time Temperature Precipitation Wind Pressure Humidity
    00:00 -2°C° 0 mm 1 mps 724 mmHg 89%
    01:00 -2°C° 0 mm 1 mps 724 mmHg 89%
    02:00 -2°C° 0 mm 1 mps 724 mmHg 88%
    03:00 -2°C° 0 mm 1 mps 724 mmHg 88%
    04:00 -3°C° 0 mm 1 mps 723 mmHg 87%
    05:00 -3°C° 0 mm 1 mps 723 mmHg 86%
    06:00 -3°C° 0 mm 1 mps 723 mmHg 86%
    07:00 -2°C° 0 mm 1 mps 723 mmHg 84%
    08:00 -1°C° 0 mm 1 mps 723 mmHg 82%
    09:00 0°C° 0 mm 1 mps 723 mmHg 80%
    10:00 +1°C° 0 mm 1 mps 723 mmHg 79%
    11:00 +2°C° 0 mm 1 mps 723 mmHg 77%
    12:00 +3°C° 0 mm 1 mps 723 mmHg 76%
    13:00 +3°C° 0 mm 1 mps 723 mmHg 77%
    14:00 +4°C° 0 mm 1 mps 722 mmHg 77%
    15:00 +4°C° 0 mm 1 mps 722 mmHg 78%
    16:00 +3°C° 0 mm 1 mps 722 mmHg 81%
    17:00 +1°C° 0 mm 1 mps 722 mmHg 83%
    18:00 0°C° 0 mm 1 mps 721 mmHg 86%
    19:00 0°C° 0 mm 1 mps 721 mmHg 86%
    20:00 -1°C° 0 mm 1 mps 721 mmHg 86%
    21:00 -1°C° 0 mm 1 mps 721 mmHg 86%
    22:00 -1°C° 0 mm 1 mps 721 mmHg 87%
    23:00 -2°C° 0 mm 1 mps 720 mmHg 87%
    Show more